GSAT0225 (GALILEO 29)

Last updated on Wed Aug 19 2026 00:02:49 GMT+0000 (Coordinated Universal Time)

1 59598U 24079A 26229.11733933 -.00000027 00000+0 00000+0 0 9997 2 59598 55.1587 99.3763 0002817 100.2832 79.5903 1.70474050 14354
UTC large
Height (km)
Speed (km/s)
/
Latitude / Longitude
Inclination (degrees)
Orbital Period (minutes)
Azimuth
Elevation
Range (km)
Doppler Factor

Next 0 passes for location: London (51.5072 / 0.1276)

No passes found over London.
GSAT0225 (GALILEO 29)